Hourly Data Report for October 18, 2016

All times are specified in Local Standard Time (LST). Add 1 hour to adjust for Daylight Saving Time where and when it is observed.

GRISE FIORD CLIMATE
NUNAVUT

76°25'22.040" N
82°54'08.020" W
44.50 m
2402351
71971
NGC

Download Data

Hourly Data (October 2016)
Hourly Data Report for October 18, 2016
Temp Definition
°C
Dew Point Temp Definition
°C
Rel Hum Definition
%
Wind Dir Definition
10's deg

Wind Spd Definition
km/h
Visibility Definition
km
Stn Press Definition
kPa
Hmdx Definition


Wind Chill Definition


Weather Definition


TIME
00:00 -9.6 -14.2 70 5 7   100.92   -14 LegendNANA
01:00 -12.5 -15.8 77 12 8   100.97   -17 LegendNANA
02:00 -11.1 -13.5 82 12 14   101.02   -18 LegendNANA
03:00 -11.8 -15.4 75 5 2   101.07   -13 LegendNANA
04:00 -13.4 -15.6 83 13 8   101.13   -18 LegendNANA
05:00 -12.7 -15.9 77 4 6   101.19   -17 LegendNANA
06:00 -14.2 -16.8 80 8 4   101.22   -17 LegendNANA
07:00 -15.3 -17.9 81 12 7   101.26   -20 LegendNANA
08:00 -13.6 -16.2 81 4 7   101.26   -18 LegendNANA
09:00 -14.6 -16.5 86 9 3   101.28   -17 LegendNANA
10:00 -15.6 -17.7 84 6 2   101.30   -17 LegendNANA
11:00 -14.8 -16.9 84 3 2   101.31   -16 LegendNANA
12:00 -15.8 -18.5 80 3 4   101.34   -19 LegendNANA
13:00 -14.7 -18.7 72 16 3   101.35   -17 LegendNANA
14:00 -13.7 -16.2 81 8 2   101.35   -15 LegendNANA
15:00 -14.7 -16.4 86 12 5   101.37   -18 LegendNANA
16:00 -14.5 -15.9 89 13 3   101.41   -17 LegendNANA
17:00 -15.3 -16.6 90 11 3   101.41   -17 LegendNANA
18:00 -15.6 -16.9 90 8 3   101.39   -18 LegendNANA
19:00 -16.2 -18.6 81 5 6   101.38   -21 LegendNANA
20:00 -15.4 -17.2 86 16 3   101.37   -18 LegendNANA
21:00 -15.2 -16.9 87 0 1   101.35   -16 LegendNANA
22:00 -16.2 -18.0 86 9 2   101.33   -18 LegendNANA
23:00 -15.3 -17.6 83 21 3   101.30   -17 LegendNANA

Notes on Data Quality.

Legend

  • E = Estimated
  • M = Missing
  • NA = Not Available
  • ‡ = Partner data that is not subject to review by the National Climate Archives
Date modified: